Dewpoint
41 41 39 39 40 39 38 37 34 32 31 33 33 34 36 37 38 35 35 39 39 38 40 39 38 37 38 38 39 39 39 39 38 39 40 40 40 40
40 39 38 38 39 39 38 38 36 35 32 34 33 34 37 35 36 36 35 38 38 38 39 40 39 39 38 38 38 39 38 37 38 39 39 39 40 40
39 38 37 38 39 38 38 38 36 35 32 32 34 35 35 35 35 35 35 32 34 38 37 38 37 39 39 39 37 36 36 36 36 36 36 38 38 39
37 37 37 35 37 37 36 36 36 34 34 32 33 33 34 33 35 33 33 32 33 34 38 37 38 38 39 38 37 35 34 34 34 35 35 35 35 36
37 36 36 36 34 35 34 34 34 33 34 32 32 33 33 34 32 32 32 32 32 35 36 36 38 38 40 38 37 36 34 34 34 35 35 36 36 35
38 36 37 33 33 33 31 32 31 32 32 31 31 31 31 32 32 31 30 32 32 32 34 36 38 37 40 38 36 35 34 34 35 36 36 36 33 34
35 34 38 34 34 34 31 32 32 32 31 30 29 29 30 30 30 31 30 32 32 33 33 35 33 34 37 38 35 35 35 36 36 36 37 33 34 34
33 34 35 36 36 36 34 34 33 30 30 29 28 29 29 30 30 31 32 32 30 33 35 33 32 34 36 36 36 36 36 36 36 35 37 34 34 35
33 34 31 33 35 31 31 33 34 34 32 31 29 29 30 31 32 32 32 33 32 33 36 28 32 31 35 34 36 36 36 36 36 36 35 37 37 36
33 32 33 33 31 30 29 31 33 32 31 29 30 31 32 33 33 33 34 34 34 34 34 24 30 30 32 36 36 37 36 36 35 36 36 36 36 36
32 32 33 32 31 31 30 31 32 31 30 31 34 34 34 34 35 34 33 33 31 31 32 27 31 29 28 34 35 37 36 35 35 34 35 34 34 34
31 31 31 30 30 31 29 31 28 28 31 32 33 34 34 34 35 35 35 32 30 31 33 27 31 31 29 33 32 35 31 34 34 33 33 32 33 31
29 33 30 30 31 30 31 29 28 30 31 33 32 34 34 34 35 35 35 33 31 32 33 31 31 31 30 30 30 32 32 34 31 31 32 31 30 30
31 34 29 29 31 31 30 31 31 31 32 31 32 32 32 32 32 34 35 33 33 32 33 33 32 31 31 29 26 29 34 32 33 31 31 30 29 29
31 28 29 30 30 29 32 31 30 33 31 32 31 31 32 33 31 32 35 33 33 32 32 32 32 33 32 29 27 28 32 29 33 32 31 29 28 27
29 30 30 31 29 29 29 31 31 31 32 32 31 32 32 31 31 30 32 33 31 31 32 33 34 34 30 26 27 28 30 31 31 32 27 29 28 26
32 31 32 33 32 31 31 31 30 31 29 32 31 30 30 29 30 30 30 34 29 29 30 31 32 32 29 28 21 25 28 29 32 29 29 23 25 23
27 31 32 31 31 30 30 29 29 30 31 32 31 31 30 30 30 30 30 33 30 30 31 31 29 28 30 29 27 22 25 27 29 33 29 26 26 22
27 32 31 31 31 31 30 29 28 30 31 32 31 31 30 30 30 29 31 32 30 30 31 30 28 28 27 24 25 29 21 23 26 27 31 30 25 24
29 31 32 32 31 30 30 29 29 30 31 31 31 31 31 30 30 29 31 32 30 30 29 30 29 25 27 28 23 25 29 23 22 21 23 31 28 30
30 32 32 31 30 30 30 29 28 30 31 31 31 30 30 30 30 30 31 32 30 30 29 29 29 30 29 29 25 27 25 29 26 23 23 24 28 21
34 33 32 32 31 31 30 29 28 29 31 29 30 30 30 31 30 30 31 31 30 30 29 31 31 31 29 27 26 27 27 29 28 27 26 24 20 12
34 34 33 33 32 31 30 29 29 31 31 30 29 28 30 30 31 31 32 31 30 30 30 29 30 30 29 29 27 27 27 28 27 26 23 27 25 23
Lifted_Index
12 12 12 12 12 12 12 12 12 10 11 12 14 15 15 15 15 16 16 16 16 15 15 14 13 12 12 11 11 12 12 12 12 11 11 10 10 10
12 12 12 12 12 12 13 13 12 12 12 13 14 15 15 15 15 16 16 16 15 15 14 14 13 12 11 12 12 12 12 12 12 11 11 10 10 10
12 12 12 13 13 13 13 13 14 13 13 13 15 15 15 15 15 16 16 16 15 15 14 13 12 11 11 12 12 12 12 12 11 11 11 11 11 10
13 13 13 13 14 14 14 14 15 15 14 14 15 15 15 15 15 15 15 15 15 14 13 12 12 11 11 12 12 12 12 12 11 11 11 11 11 11
13 13 14 14 14 15 15 15 15 16 15 15 15 15 15 15 15 14 14 14 14 14 13 12 11 11 11 11 12 12 12 11 11 11 11 11 11 11
13 14 14 14 15 15 15 15 15 16 16 15 15 15 14 14 14 13 13 13 14 14 13 12 11 11 11 11 11 12 11 11 11 11 11 11 11 12
13 14 14 14 15 15 16 16 16 15 15 15 15 14 14 14 13 13 13 13 13 13 13 12 11 11 10 11 11 11 11 10 10 10 11 11 12 12
14 14 14 14 15 16 16 16 16 16 16 15 15 14 14 14 14 14 13 12 13 13 13 12 12 11 10 10 10 10 10 10 10 10 10 11 11 11
14 14 14 15 15 16 16 16 16 16 16 16 16 15 15 16 16 15 14 13 13 13 12 12 11 11 10 10 10 10 10 10 10 10 10 10 11 11
14 14 14 15 16 16 16 16 16 16 17 17 17 17 17 17 17 16 15 14 14 13 12 11 11 11 10 10 10 10 10 10 10 10 10 10 10 10
14 14 15 15 16 16 16 16 16 16 16 16 17 17 17 17 16 16 15 14 13 13 13 12 11 10 9 9 9 10 10 9 9 9 9 10 10 10
14 14 15 15 16 16 16 16 16 16 16 15 16 16 16 16 16 16 15 14 13 13 13 12 11 10 9 9 9 10 10 10 10 10 10 10 10 10
14 14 15 16 16 16 16 16 16 16 15 15 15 15 15 16 16 16 15 15 14 14 13 13 11 10 9 9 9 9 9 10 10 10 10 10 10 10
14 15 15 16 16 16 16 16 16 16 15 15 14 14 14 15 15 15 15 15 15 14 14 13 12 11 10 9 9 9 9 9 9 9 9 10 10 10
15 15 16 16 16 16 16 16 16 16 15 15 14 14 15 15 15 15 15 15 14 14 14 13 12 11 10 9 9 9 9 9 9 9 9 9 10 10
15 15 15 15 15 16 16 16 16 16 15 14 14 14 15 15 15 15 15 14 14 14 13 13 12 11 11 10 9 9 9 9 9 9 9 9 10 10
14 14 14 14 14 15 16 16 16 16 15 14 14 14 14 14 14 15 14 14 13 13 13 12 12 11 11 10 10 9 9 9 9 9 9 9 10 10
13 13 13 13 13 14 15 15 16 15 15 14 14 13 13 13 14 14 14 14 13 13 12 12 12 11 11 10 11 11 10 10 9 9 9 9 9 10
13 13 13 13 13 14 14 15 15 15 14 14 13 13 13 13 13 14 14 14 13 13 12 12 12 11 10 10 11 12 11 10 10 9 9 9 9 10
13 13 13 13 13 14 14 15 15 15 14 13 13 13 13 13 13 14 14 14 13 13 12 12 12 11 11 10 11 12 12 11 10 10 9 9 10 10
12 12 13 13 13 14 14 15 15 15 14 13 13 13 13 13 13 14 14 14 13 12 12 12 12 12 12 11 11 11 12 12 11 11 10 10 10 10
12 12 13 13 13 14 14 15 15 14 13 13 12 13 13 13 13 14 14 14 13 12 12 12 12 12 12 12 11 11 11 11 11 11 10 10 10 9
12 12 12 13 13 14 14 14 14 14 13 12 12 12 13 13 13 14 14 14 13 12 12 12 12 12 12 11 11 11 11 11 11 10 10 10 10 10